Time,TemperatureF,DewpointF,PressureIn,WindDirection,WindDirectionDegrees,WindSpeedMPH,WindSpeedGustMPH,Humidity,HourlyPrecipIn,Conditions,Clouds,dailyrainin,SolarRadiationWatts/m^2,SoftwareType,DateUTC
2013-01-03 00:02:00,32.0,12.0,-100.00,East,79,2.0,4.0,43,0.00,,,0.17,0.000000,,2013-01-03 07:02:00,
2013-01-03 00:12:00,32.0,12.0,-100.00,East,79,2.0,4.0,43,0.00,,,0.17,0.000000,,2013-01-03 07:12:00,
2013-01-03 00:22:00,32.0,12.0,-100.00,East,79,2.0,4.0,43,0.00,,,0.17,0.000000,,2013-01-03 07:22:00,
2013-01-03 00:32:00,32.0,12.0,-100.00,East,79,2.0,4.0,43,0.00,,,0.17,0.000000,,2013-01-03 07:32:00,
2013-01-03 01:02:00,32.0,14.0,-100.00,NNE,20,1.0,4.0,47,0.00,,,0.17,0.000000,,2013-01-03 08:02:00,
2013-01-03 01:12:00,32.0,14.0,-100.00,NNE,20,1.0,4.0,47,0.00,,,0.17,0.000000,,2013-01-03 08:12:00,
2013-01-03 01:22:00,32.0,14.0,-100.00,NNE,20,1.0,4.0,47,0.00,,,0.17,0.000000,,2013-01-03 08:22:00,
2013-01-03 01:32:00,32.0,14.0,-100.00,NNE,20,1.0,4.0,47,0.00,,,0.17,0.000000,,2013-01-03 08:32:00,
2013-01-03 02:02:00,32.0,12.0,-100.00,West,280,3.0,5.0,42,0.00,,,0.17,0.000000,,2013-01-03 09:02:00,
2013-01-03 02:12:00,32.0,12.0,-100.00,West,280,3.0,5.0,42,0.00,,,0.17,0.000000,,2013-01-03 09:12:00,
2013-01-03 02:22:00,32.0,12.0,-100.00,West,280,3.0,5.0,42,0.00,,,0.17,0.000000,,2013-01-03 09:22:00,
2013-01-03 02:33:00,32.0,12.0,-100.00,West,280,3.0,5.0,42,0.00,,,0.17,0.000000,,2013-01-03 09:33:00,
2013-01-03 02:53:00,32.0,15.0,-100.00,West,271,5.0,8.0,50,0.00,,,0.17,0.000000,,2013-01-03 09:53:00,
2013-01-03 03:02:00,32.0,15.0,-100.00,West,271,5.0,8.0,50,0.00,,,0.17,0.000000,,2013-01-03 10:02:00,
2013-01-03 03:12:00,32.0,15.0,-100.00,West,271,5.0,8.0,50,0.00,,,0.17,0.000000,,2013-01-03 10:12:00,
2013-01-03 03:22:00,32.0,15.0,-100.00,West,271,5.0,8.0,50,0.00,,,0.17,0.000000,,2013-01-03 10:22:00,
2013-01-03 03:32:00,32.0,15.0,-100.00,West,271,5.0,8.0,50,0.00,,,0.17,0.000000,,2013-01-03 10:32:00,
2013-01-03 03:53:00,31.0,15.0,-100.00,West,261,2.0,8.0,50,0.00,,,0.17,0.000000,,2013-01-03 10:53:00,
2013-01-03 04:02:00,31.0,15.0,-100.00,West,261,2.0,8.0,50,0.00,,,0.17,0.000000,,2013-01-03 11:02:00,
2013-01-03 04:12:00,31.0,15.0,-100.00,West,261,2.0,8.0,50,0.00,,,0.17,0.000000,,2013-01-03 11:12:00,
2013-01-03 04:22:00,31.0,15.0,-100.00,West,261,2.0,8.0,50,0.00,,,0.17,0.000000,,2013-01-03 11:22:00,
2013-01-03 04:32:00,31.0,15.0,-100.00,West,261,2.0,8.0,50,0.00,,,0.17,0.000000,,2013-01-03 11:32:00,
2013-01-03 04:53:00,30.0,15.0,-100.00,SW,232,1.0,4.0,53,0.00,,,0.17,0.000000,,2013-01-03 11:53:00,
2013-01-03 05:02:00,30.0,15.0,-100.00,SW,232,1.0,4.0,53,0.00,,,0.17,0.000000,,2013-01-03 12:02:00,
2013-01-03 05:12:00,30.0,15.0,-100.00,SW,232,1.0,4.0,53,0.00,,,0.17,0.000000,,2013-01-03 12:12:00,
2013-01-03 05:22:00,30.0,15.0,-100.00,SW,232,1.0,4.0,53,0.00,,,0.17,0.000000,,2013-01-03 12:22:00,
2013-01-03 05:32:00,30.0,15.0,-100.00,SW,232,1.0,4.0,53,0.00,,,0.17,0.000000,,2013-01-03 12:32:00,
2013-01-03 05:53:00,31.0,18.0,-100.00,ENE,75,2.0,6.0,59,0.00,,,0.17,0.000000,,2013-01-03 12:53:00,
2013-01-03 06:02:00,31.0,18.0,-100.00,ENE,75,2.0,6.0,59,0.00,,,0.17,0.000000,,2013-01-03 13:02:00,
2013-01-03 06:12:00,31.0,18.0,-100.00,ENE,75,2.0,6.0,59,0.00,,,0.17,0.000000,,2013-01-03 13:12:00,
2013-01-03 06:22:00,31.0,18.0,-100.00,ENE,75,2.0,6.0,59,0.00,,,0.17,0.000000,,2013-01-03 13:22:00,
2013-01-03 06:32:00,31.0,18.0,-100.00,ENE,75,2.0,6.0,59,0.00,,,0.17,0.000000,,2013-01-03 13:32:00,
2013-01-03 06:53:00,31.0,17.0,-100.00,NNE,24,3.0,3.0,55,0.00,,,0.17,0.000000,,2013-01-03 13:53:00,
2013-01-03 07:02:00,31.0,17.0,-100.00,NNE,24,3.0,3.0,55,0.00,,,0.17,0.000000,,2013-01-03 14:02:00,
2013-01-03 07:12:00,31.0,17.0,-100.00,NNE,24,3.0,3.0,55,0.00,,,0.17,0.000000,,2013-01-03 14:12:00,
2013-01-03 07:22:00,31.0,17.0,-100.00,NNE,24,3.0,3.0,55,0.00,,,0.17,0.000000,,2013-01-03 14:22:00,
2013-01-03 07:32:00,31.0,17.0,-100.00,NNE,24,3.0,3.0,55,0.00,,,0.17,0.000000,,2013-01-03 14:32:00,
2013-01-03 08:02:00,31.0,14.0,-100.00,NE,46,1.0,3.0,49,0.00,,,0.17,3.000000,,2013-01-03 15:02:00,
2013-01-03 08:12:00,31.0,14.0,-100.00,NE,46,1.0,3.0,49,0.00,,,0.17,3.000000,,2013-01-03 15:12:00,
2013-01-03 08:22:00,31.0,14.0,-100.00,NE,46,1.0,3.0,49,0.00,,,0.17,3.000000,,2013-01-03 15:22:00,
2013-01-03 08:33:00,31.0,14.0,-100.00,NE,46,1.0,3.0,49,0.00,,,0.17,3.000000,,2013-01-03 15:33:00,
2013-01-03 09:03:00,38.0,17.0,-100.00,ENE,77,4.0,6.0,42,0.00,,,0.17,148.000000,,2013-01-03 16:03:00,
2013-01-03 09:12:00,38.0,17.0,-100.00,ENE,77,4.0,6.0,42,0.00,,,0.17,148.000000,,2013-01-03 16:12:00,
2013-01-03 09:22:00,38.0,17.0,-100.00,ENE,77,4.0,6.0,42,0.00,,,0.17,148.000000,,2013-01-03 16:22:00,
2013-01-03 09:32:00,38.0,17.0,-100.00,ENE,77,4.0,6.0,42,0.00,,,0.17,148.000000,,2013-01-03 16:32:00,
2013-01-03 10:03:00,42.0,21.0,-100.00,East,82,4.0,8.0,42,0.00,,,0.17,399.000000,,2013-01-03 17:03:00,
2013-01-03 10:12:00,42.0,21.0,-100.00,East,82,4.0,8.0,42,0.00,,,0.17,399.000000,,2013-01-03 17:12:00,
2013-01-03 10:22:00,42.0,21.0,-100.00,East,82,4.0,8.0,42,0.00,,,0.17,399.000000,,2013-01-03 17:22:00,
2013-01-03 10:32:00,42.0,21.0,-100.00,East,82,4.0,8.0,42,0.00,,,0.17,399.000000,,2013-01-03 17:32:00,
2013-01-03 10:53:00,39.0,21.0,-100.00,ENE,77,8.0,11.0,49,0.00,,,0.17,611.000000,,2013-01-03 17:53:00,
2013-01-03 11:03:00,39.0,21.0,-100.00,ENE,77,8.0,11.0,49,0.00,,,0.17,611.000000,,2013-01-03 18:03:00,
2013-01-03 11:12:00,39.0,21.0,-100.00,ENE,77,8.0,11.0,49,0.00,,,0.17,611.000000,,2013-01-03 18:12:00,
2013-01-03 11:22:00,39.0,21.0,-100.00,ENE,77,8.0,11.0,49,0.00,,,0.17,611.000000,,2013-01-03 18:22:00,
2013-01-03 11:33:00,39.0,21.0,-100.00,ENE,77,8.0,11.0,49,0.00,,,0.17,611.000000,,2013-01-03 18:33:00,
2013-01-03 12:03:00,45.0,25.0,-100.00,South,176,4.0,11.0,45,0.00,,,0.17,653.000000,,2013-01-03 19:03:00,
2013-01-03 12:12:00,45.0,25.0,-100.00,South,176,4.0,11.0,45,0.00,,,0.17,653.000000,,2013-01-03 19:12:00,
2013-01-03 13:02:00,44.0,26.0,-100.00,SSE,157,6.0,11.0,48,0.02,,,0.19,825.000000,,2013-01-03 20:02:00,
2013-01-03 13:12:00,44.0,26.0,-100.00,SSE,157,6.0,11.0,48,0.02,,,0.19,825.000000,,2013-01-03 20:12:00,
2013-01-03 13:22:00,44.0,26.0,-100.00,SSE,157,6.0,11.0,48,0.02,,,0.19,825.000000,,2013-01-03 20:22:00,
2013-01-03 13:33:00,44.0,26.0,-100.00,SSE,157,6.0,11.0,48,0.02,,,0.19,825.000000,,2013-01-03 20:33:00,
2013-01-03 14:02:00,45.0,27.0,-100.00,South,177,5.0,11.0,50,0.02,,,0.21,817.000000,,2013-01-03 21:02:00,
2013-01-03 14:12:00,45.0,27.0,-100.00,South,177,5.0,11.0,50,0.02,,,0.21,817.000000,,2013-01-03 21:12:00,
2013-01-03 14:22:00,45.0,27.0,-100.00,South,177,5.0,11.0,50,0.02,,,0.21,817.000000,,2013-01-03 21:22:00,
2013-01-03 14:34:00,45.0,27.0,-100.00,South,177,5.0,11.0,50,0.02,,,0.21,817.000000,,2013-01-03 21:34:00,
2013-01-03 15:02:00,46.0,26.0,-100.00,SSW,210,4.0,8.0,45,0.03,,,0.15,736.000000,,2013-01-03 22:02:00,
2013-01-03 15:12:00,46.0,26.0,-100.00,SSW,210,4.0,8.0,45,0.03,,,0.15,736.000000,,2013-01-03 22:12:00,
2013-01-03 15:22:00,46.0,26.0,-100.00,SSW,210,4.0,8.0,45,0.03,,,0.15,736.000000,,2013-01-03 22:22:00,
2013-01-03 15:32:00,46.0,26.0,-100.00,SSW,210,4.0,8.0,45,0.03,,,0.15,736.000000,,2013-01-03 22:32:00,
2013-01-03 15:52:00,41.0,24.0,-100.00,ENE,70,6.0,9.0,51,0.02,,,0.12,519.000000,,2013-01-03 22:52:00,
2013-01-03 16:02:00,41.0,24.0,-100.00,ENE,70,6.0,9.0,51,0.02,,,0.12,519.000000,,2013-01-03 23:02:00,
2013-01-03 16:12:00,41.0,24.0,-100.00,ENE,70,6.0,9.0,51,0.02,,,0.12,519.000000,,2013-01-03 23:12:00,
2013-01-03 16:22:00,41.0,24.0,-100.00,ENE,70,6.0,9.0,51,0.02,,,0.12,519.000000,,2013-01-03 23:22:00,
2013-01-03 16:32:00,41.0,24.0,-100.00,ENE,70,6.0,9.0,51,0.02,,,0.12,519.000000,,2013-01-03 23:32:00,
2013-01-03 16:53:00,35.0,23.0,-100.00,SE,141,2.0,10.0,62,0.00,,,0.09,327.000000,,2013-01-03 23:53:00,
2013-01-03 17:03:00,35.0,23.0,-100.00,SE,141,2.0,10.0,62,0.00,,,0.09,327.000000,,2013-01-04 00:03:00,
2013-01-03 17:12:00,35.0,23.0,-100.00,SE,141,2.0,10.0,62,0.00,,,0.09,327.000000,,2013-01-04 00:12:00,
2013-01-03 17:22:00,35.0,23.0,-100.00,SE,141,2.0,10.0,62,0.00,,,0.09,327.000000,,2013-01-04 00:22:00,
2013-01-03 17:32:00,35.0,23.0,-100.00,SE,141,2.0,10.0,62,0.00,,,0.09,327.000000,,2013-01-04 00:32:00,
2013-01-03 18:02:00,30.0,23.0,-100.00,SE,129,1.0,5.0,75,0.00,,,0.09,37.000000,,2013-01-04 01:02:00,
2013-01-03 18:12:00,30.0,23.0,-100.00,SE,129,1.0,5.0,75,0.00,,,0.09,37.000000,,2013-01-04 01:12:00,
2013-01-03 18:22:00,30.0,23.0,-100.00,SE,129,1.0,5.0,75,0.00,,,0.09,37.000000,,2013-01-04 01:22:00,
2013-01-03 18:32:00,30.0,23.0,-100.00,SE,129,1.0,5.0,75,0.00,,,0.09,37.000000,,2013-01-04 01:32:00,
2013-01-03 18:52:00,28.0,21.0,-100.00,NW,324,0.0,3.0,75,0.00,,,0.09,1.000000,,2013-01-04 01:52:00,
2013-01-03 19:02:00,28.0,21.0,-100.00,NW,324,0.0,3.0,75,0.00,,,0.09,1.000000,,2013-01-04 02:02:00,
2013-01-03 19:12:00,28.0,21.0,-100.00,NW,324,0.0,3.0,75,0.00,,,0.09,1.000000,,2013-01-04 02:12:00,
2013-01-03 19:22:00,28.0,21.0,-100.00,NW,324,0.0,3.0,75,0.00,,,0.09,1.000000,,2013-01-04 02:22:00,
2013-01-03 19:32:00,28.0,21.0,-100.00,NW,324,0.0,3.0,75,0.00,,,0.09,1.000000,,2013-01-04 02:32:00,
2013-01-03 19:53:00,29.0,20.0,-100.00,NW,317,3.0,4.0,69,0.00,,,0.09,0.000000,,2013-01-04 02:53:00,
2013-01-03 20:02:00,29.0,20.0,-100.00,NW,317,3.0,4.0,69,0.00,,,0.09,0.000000,,2013-01-04 03:02:00,
2013-01-03 20:12:00,29.0,20.0,-100.00,NW,317,3.0,4.0,69,0.00,,,0.09,0.000000,,2013-01-04 03:12:00,
2013-01-03 20:22:00,29.0,20.0,-100.00,NW,317,3.0,4.0,69,0.00,,,0.09,0.000000,,2013-01-04 03:22:00,
2013-01-03 20:32:00,29.0,20.0,-100.00,NW,317,3.0,4.0,69,0.00,,,0.09,0.000000,,2013-01-04 03:32:00,
2013-01-03 20:53:00,25.0,21.0,-100.00,ENE,60,9.0,13.0,84,0.00,,,0.09,0.000000,,2013-01-04 03:53:00,
2013-01-03 21:02:00,25.0,21.0,-100.00,ENE,60,9.0,13.0,84,0.00,,,0.09,0.000000,,2013-01-04 04:02:00,
2013-01-03 21:12:00,25.0,21.0,-100.00,ENE,60,9.0,13.0,84,0.00,,,0.09,0.000000,,2013-01-04 04:12:00,
2013-01-03 21:22:00,25.0,21.0,-100.00,ENE,60,9.0,13.0,84,0.00,,,0.09,0.000000,,2013-01-04 04:22:00,
2013-01-03 21:32:00,25.0,21.0,-100.00,ENE,60,9.0,13.0,84,0.00,,,0.09,0.000000,,2013-01-04 04:32:00,
2013-01-03 21:52:00,26.0,21.0,-100.00,SSE,161,0.0,11.0,80,0.00,,,0.09,0.000000,,2013-01-04 04:52:00,
2013-01-03 22:03:00,26.0,21.0,-100.00,SSE,161,0.0,11.0,80,0.00,,,0.09,0.000000,,2013-01-04 05:03:00,
2013-01-03 22:12:00,26.0,21.0,-100.00,SSE,161,0.0,11.0,80,0.00,,,0.09,0.000000,,2013-01-04 05:12:00,
2013-01-03 22:22:00,26.0,21.0,-100.00,SSE,161,0.0,11.0,80,0.00,,,0.09,0.000000,,2013-01-04 05:22:00,
2013-01-03 22:33:00,26.0,21.0,-100.00,SSE,161,0.0,11.0,80,0.00,,,0.09,0.000000,,2013-01-04 05:33:00,
2013-01-03 22:53:00,25.0,21.0,-100.00,NE,51,1.0,6.0,84,0.00,,,0.09,0.000000,,2013-01-04 05:53:00,
2013-01-03 23:02:00,25.0,21.0,-100.00,NE,51,1.0,6.0,84,0.00,,,0.09,0.000000,,2013-01-04 06:02:00,
2013-01-03 23:12:00,25.0,21.0,-100.00,NE,51,1.0,6.0,84,0.00,,,0.09,0.000000,,2013-01-04 06:12:00,
2013-01-03 23:22:00,25.0,21.0,-100.00,NE,51,1.0,6.0,84,0.00,,,0.09,0.000000,,2013-01-04 06:22:00,
2013-01-03 23:32:00,25.0,21.0,-100.00,NE,51,1.0,6.0,84,0.00,,,0.09,0.000000,,2013-01-04 06:32:00,